Wind_Speed
10 10 10 10 11 11 11 12 13 13 13 13 13 12 12 12 13 14 15 15 16 17 17 17 17 17 16 15 14 14 14 13 12 12 11 11 11 11 11 11 10 10 9 10
11 11 11 11 11 11 11 12 12 13 12 13 12 11 12 12 13 13 14 14 15 16 17 17 17 17 16 16 15 15 15 15 14 14 13 13 13 13 13 13 13 12 12 12
12 12 11 11 10 11 11 11 11 12 12 12 12 11 11 12 12 13 13 13 14 15 17 18 17 18 17 17 17 17 16 16 16 15 15 15 15 15 15 15 15 15 15 15
13 13 12 10 11 11 11 11 11 11 11 11 11 11 11 11 12 13 14 14 15 15 16 17 18 18 18 18 18 18 18 18 18 18 17 17 17 17 17 17 17 17 17 16
14 13 11 11 11 11 11 11 11 11 11 11 11 11 11 12 13 13 14 15 15 16 16 17 18 18 18 18 18 19 19 19 20 20 20 20 19 19 19 18 19 19 18 18
15 14 13 11 12 12 11 10 11 11 11 11 12 12 12 12 13 13 14 15 15 16 16 17 18 19 19 19 19 19 20 21 21 22 22 21 21 21 21 20 21 21 20 20
16 15 12 12 13 12 11 10 11 11 12 13 13 14 14 14 14 14 14 15 15 15 15 16 17 18 18 19 20 20 21 21 21 22 22 22 23 23 23 23 23 23 22 22
17 16 13 14 13 13 12 12 12 13 14 14 14 15 14 14 15 15 16 16 16 15 16 16 17 18 19 20 21 22 22 22 22 22 22 23 23 24 24 24 25 25 25 25
18 16 15 15 15 15 15 15 15 14 14 14 15 15 14 15 15 16 17 17 17 17 18 18 19 19 20 21 22 22 22 22 23 23 24 24 24 25 25 25 26 26 27 27
20 19 17 17 16 16 16 16 16 16 16 16 16 16 16 16 16 16 17 18 18 19 19 19 20 21 22 22 23 23 23 23 23 24 25 25 26 27 27 28 28 28 28 29
22 21 20 18 18 18 19 18 18 18 18 18 18 18 17 17 18 18 18 19 19 20 20 21 21 22 23 24 24 24 24 25 25 26 26 27 28 28 29 30 30 31 31 31
23 21 21 20 19 19 18 19 19 19 19 19 19 18 18 18 18 19 20 21 21 22 22 23 23 24 24 25 25 25 26 26 27 27 27 28 29 30 30 31 32 32 33 34
25 23 23 21 20 20 20 20 20 19 19 19 19 19 19 19 19 19 21 22 22 23 23 24 24 25 26 26 26 26 27 27 28 28 28 29 30 30 31 32 33 33 34 35
27 26 25 23 22 22 22 22 21 21 21 21 21 21 21 21 21 21 22 23 23 24 24 25 25 26 27 28 28 27 28 28 29 30 30 31 32 33 33 34 34 35 36 36
28 28 27 26 26 25 24 24 24 24 23 23 23 23 23 23 23 24 24 24 25 25 26 26 26 27 27 28 29 29 30 30 31 31 32 33 33 34 35 36 37 37 38 39
31 30 30 30 29 28 27 26 26 26 26 25 26 25 25 26 26 26 26 26 27 27 27 27 28 28 28 29 30 31 32 32 33 33 33 34 35 35 36 37 38 38 39 40
34 33 33 32 32 31 30 29 29 29 28 28 28 28 28 28 29 29 29 29 29 29 29 29 30 30 30 31 31 31 32 33 34 35 36 37 37 37 37 38 39 39 41 43
34 34 35 35 34 33 33 32 32 32 31 31 31 30 30 30 31 31 30 31 31 31 31 32 32 32 32 33 33 33 34 35 36 37 37 38 39 40 40 40 41 42 43 44
35 35 35 35 35 35 34 34 34 33 33 33 33 33 33 33 33 33 33 33 33 33 33 33 34 34 34 35 35 36 37 37 38 39 39 39 40 41 41 42 43 44 45 46
35 34 34 35 35 35 35 35 35 35 35 35 35 35 35 35 36 36 36 36 36 36 36 36 36 36 37 37 37 38 39 39 40 40 41 42 42 43 44 45 46 47 48 49
34 34 34 34 34 34 35 35 35 36 36 37 36 36 37 37 37 37 38 38 38 38 38 38 39 39 39 39 40 41 41 42 42 43 44 44 45 46 47 48 49 50 51 51
34 34 34 34 34 34 35 35 35 36 37 37 38 38 38 38 38 39 39 39 40 40 40 41 41 41 41 42 42 43 43 44 44 45 46 46 47 48 49 50 51 52 53 53
34 34 34 34 35 35 35 35 36 36 36 37 38 38 38 39 39 40 40 40 41 41 41 42 42 42 43 43 44 44 45 46 46 47 47 48 49 50 51 52 52 53 54 54
34 35 35 35 35 36 36 37 37 37 38 38 38 39 40 40 40 40 41 41 42 42 42 43 43 44 44 45 46 47 47 48 49 49 50 51 51 52 53 54 55 55 55 56
34 35 35 36 36 37 38 39 39 40 40 40 40 41 41 41 41 42 42 42 42 43 44 45 45 46 47 47 48 49 49 50 50 51 52 52 53 54 55 55 56 56 56 56
36 36 37 37 38 38 39 40 40 41 41 41 41 42 42 42 43 43 43 44 44 45 46 47 47 48 49 50 50 50 51 51 52 52 53 54 55 55 56 56 56 57 57 57
37 37 38 38 39 39 40 41 41 41 41 41 41 42 42 42 43 43 44 45 46 46 47 48 49 50 50 51 52 53 53 54 54 54 55 56 56 56 56 57 57 57 57 57
Wind_Direction
233 236 236 234 228 222 223 221 223 223 227 230 233 231 230 232 231 228 227 228 226 225 224 223 223 222 222 224 228 231 233 236 239 243 246 250 254 258 262 265 269 273 279 284
239 240 239 238 235 232 226 221 224 226 229 230 229 229 233 235 232 228 229 230 228 225 225 225 224 224 226 230 232 234 236 239 243 248 250 252 255 260 263 265 268 271 276 280
239 241 241 239 236 232 230 227 225 226 231 230 230 231 232 233 231 230 231 230 228 226 226 227 227 228 230 234 236 237 240 242 247 250 253 256 258 262 264 266 269 272 275 278
240 242 241 238 236 234 231 228 228 230 230 232 230 229 229 231 234 234 232 229 229 229 230 229 231 232 235 237 241 241 243 246 248 253 256 258 260 262 264 267 269 272 275 277
238 240 237 237 240 236 232 229 232 234 232 233 230 229 230 230 231 234 231 228 228 230 233 235 237 238 239 241 244 245 247 249 252 254 257 260 261 263 265 267 269 271 274 277
240 243 243 238 239 236 234 231 231 231 233 234 235 237 236 234 233 234 235 233 232 234 238 239 240 243 243 245 247 249 251 253 254 256 258 260 263 264 264 266 268 271 273 276
240 243 241 237 239 239 239 236 235 235 236 236 239 242 242 241 239 238 238 237 239 242 244 244 244 244 246 249 250 254 254 257 259 259 260 261 264 265 264 266 268 270 272 274
240 241 236 234 236 238 238 238 239 238 238 240 244 244 241 241 242 243 243 243 245 247 248 249 249 250 252 252 253 255 257 260 262 263 263 263 265 265 266 268 269 271 273 274
238 238 237 235 235 237 238 240 243 242 241 243 244 243 245 245 246 247 247 248 250 251 253 255 256 257 257 256 256 257 260 263 264 265 267 267 267 268 268 268 270 271 272 274
237 237 240 240 235 237 241 243 242 242 244 246 247 248 251 251 250 250 252 253 254 254 256 257 258 258 258 258 258 259 262 265 266 267 268 268 269 269 270 270 272 273 273 275
239 238 242 243 242 241 240 241 241 243 245 247 248 249 252 252 252 253 256 258 258 259 259 259 259 260 259 260 261 262 264 266 267 267 268 269 270 271 271 272 274 275 276 276
241 241 243 244 243 241 242 242 242 245 246 247 248 250 252 253 255 255 256 258 260 261 263 264 263 263 262 263 264 265 266 267 268 268 268 270 272 272 273 274 275 277 278 278
240 242 243 242 242 242 243 245 246 247 250 252 255 256 256 256 257 259 260 261 262 263 264 265 266 267 266 266 266 267 268 268 267 269 269 271 272 274 275 276 277 279 279 280
240 241 241 241 243 245 246 247 249 251 254 256 258 257 258 258 259 261 263 263 265 265 266 267 268 267 267 267 267 267 268 269 271 271 271 272 273 275 276 278 279 279 280 281
241 241 242 243 244 246 249 251 253 255 257 259 261 260 261 262 263 264 265 266 267 268 268 269 270 270 269 268 268 268 269 270 272 273 273 274 275 276 277 279 280 281 281 282
241 242 242 244 246 248 251 253 255 256 258 261 261 261 262 264 265 266 266 267 269 271 272 271 271 272 272 272 270 269 270 272 273 273 274 276 278 278 279 280 281 282 282 283
241 242 243 246 248 250 252 254 255 256 258 261 263 264 265 266 266 266 267 268 269 271 272 273 273 274 274 274 272 271 272 273 274 275 276 277 279 279 280 280 281 282 282 283
243 244 245 247 250 251 252 255 257 259 261 263 265 266 266 267 267 267 269 270 270 272 272 273 274 275 275 275 274 273 275 276 276 276 277 278 279 280 281 282 283 284 285 286
245 246 248 249 250 251 253 255 258 260 261 263 264 265 266 266 267 268 269 270 272 273 274 274 275 275 275 275 275 275 276 277 278 279 280 280 281 282 283 284 285 285 286 287
246 247 248 250 251 252 254 256 258 260 262 264 265 266 267 268 268 269 270 271 272 273 274 275 275 276 276 275 276 276 277 278 279 280 281 282 282 283 284 285 286 286 287 288
247 248 250 251 252 254 255 257 258 260 262 263 265 266 267 269 269 270 270 271 272 273 274 275 276 276 277 278 278 278 278 279 280 280 282 282 283 283 284 285 285 286 287 288
246 248 250 251 253 255 257 259 261 262 263 264 265 266 268 269 270 270 271 271 272 273 274 276 276 277 277 278 279 279 280 280 281 281 282 282 283 283 284 285 286 287 287 288
247 249 251 252 253 255 258 260 262 263 264 266 266 267 269 269 270 271 272 273 274 274 275 276 277 277 278 278 279 280 281 282 282 282 282 283 283 284 285 286 287 287 287 288
249 250 252 253 255 257 259 260 262 264 265 267 268 269 269 270 271 272 273 274 274 275 276 276 277 277 278 279 279 280 281 282 282 282 283 283 284 285 286 286 287 287 287 288
249 250 252 254 256 258 259 261 263 265 267 268 269 270 271 271 272 273 274 275 275 276 276 277 278 278 279 280 281 281 282 283 283 283 284 285 285 286 286 287 287 288 288 288
249 251 254 256 258 260 261 263 264 265 267 268 269 270 271 272 273 274 275 275 276 277 278 278 279 280 280 281 282 283 283 284 284 285 286 286 287 287 287 287 287 287 287 287
251 253 255 257 258 260 262 264 265 266 268 269 270 271 272 272 274 275 276 277 277 279 279 280 280 281 281 282 282 283 284 284 285 286 287 287 287 287 287 287 287 287 287 287
Height
5823 5824 5825 5826 5827 5829 5830 5832 5834 5837 5838 5840 5841 5842 5844 5845 5847 5849 5851 5852 5854 5856 5858 5861 5863 5865 5867 5869 5870 5872 5874 5875 5876 5877 5878 5878 5879 5879 5880 5880 5879 5879 5879 5879
5822 5822 5823 5824 5825 5827 5828 5830 5832 5834 5836 5837 5838 5840 5841 5843 5844 5846 5847 5849 5851 5853 5855 5857 5860 5862 5864 5866 5867 5869 5870 5872 5873 5874 5875 5875 5876 5876 5877 5877 5877 5876 5876 5876
5820 5820 5821 5823 5824 5825 5826 5828 5830 5831 5834 5834 5836 5837 5838 5840 5841 5843 5844 5846 5848 5850 5852 5854 5856 5858 5861 5862 5864 5865 5867 5868 5869 5870 5871 5872 5872 5873 5873 5873 5873 5873 5873 5872
5817 5819 5820 5823 5822 5823 5825 5826 5827 5829 5831 5832 5833 5834 5836 5837 5839 5840 5842 5843 5845 5847 5849 5851 5853 5855 5857 5858 5860 5862 5863 5864 5865 5866 5867 5868 5868 5869 5869 5869 5869 5869 5869 5868
5814 5815 5817 5820 5820 5821 5822 5824 5825 5826 5828 5829 5830 5832 5833 5835 5836 5837 5839 5840 5842 5844 5845 5847 5849 5851 5853 5855 5856 5858 5859 5860 5861 5862 5863 5863 5864 5864 5864 5865 5865 5864 5864 5864
5812 5813 5815 5818 5818 5818 5821 5822 5823 5824 5825 5827 5828 5830 5832 5832 5833 5835 5836 5837 5839 5840 5842 5843 5845 5847 5849 5850 5852 5853 5854 5855 5856 5857 5858 5858 5859 5859 5859 5859 5860 5859 5859 5859
5808 5810 5812 5814 5814 5816 5819 5821 5821 5821 5822 5824 5825 5827 5828 5829 5830 5832 5833 5834 5835 5837 5838 5839 5841 5843 5844 5845 5847 5848 5849 5850 5850 5851 5852 5853 5853 5853 5854 5854 5854 5854 5853 5853
5804 5807 5811 5811 5812 5814 5816 5816 5817 5818 5819 5821 5822 5823 5824 5825 5827 5828 5829 5831 5832 5833 5834 5835 5837 5838 5839 5840 5841 5842 5843 5844 5845 5845 5846 5846 5847 5847 5847 5847 5847 5847 5847 5847
5801 5805 5806 5807 5808 5810 5811 5813 5814 5815 5816 5817 5818 5819 5820 5821 5823 5824 5825 5826 5828 5829 5830 5831 5832 5833 5834 5835 5835 5837 5838 5838 5839 5839 5840 5840 5840 5840 5840 5840 5840 5840 5840 5839
5796 5799 5801 5802 5804 5806 5807 5809 5810 5811 5812 5813 5814 5815 5816 5817 5818 5819 5821 5822 5823 5824 5825 5826 5827 5828 5828 5829 5830 5831 5832 5832 5832 5833 5833 5833 5833 5833 5833 5833 5833 5832 5832 5831
5791 5794 5796 5798 5800 5801 5803 5805 5806 5807 5808 5809 5810 5811 5812 5813 5813 5815 5816 5817 5818 5819 5820 5820 5821 5822 5822 5823 5824 5824 5825 5825 5825 5825 5826 5826 5826 5826 5825 5825 5825 5824 5823 5823
5787 5789 5791 5793 5795 5797 5798 5800 5801 5802 5803 5804 5805 5806 5807 5807 5808 5810 5811 5811 5812 5813 5813 5814 5815 5815 5816 5816 5817 5817 5818 5818 5818 5818 5818 5818 5818 5817 5817 5817 5816 5815 5814 5813
5781 5783 5785 5787 5789 5791 5793 5794 5796 5797 5798 5799 5799 5800 5801 5802 5803 5804 5805 5805 5806 5806 5807 5807 5808 5808 5808 5809 5809 5810 5810 5810 5810 5810 5810 5810 5810 5809 5808 5808 5806 5806 5804 5803
5774 5776 5779 5781 5783 5785 5787 5788 5790 5791 5792 5793 5794 5795 5796 5796 5797 5798 5798 5799 5799 5800 5800 5800 5801 5801 5801 5801 5802 5802 5802 5802 5802 5802 5802 5801 5801 5800 5799 5798 5797 5796 5794 5793
5767 5769 5772 5774 5777 5778 5780 5782 5784 5785 5786 5787 5787 5788 5789 5790 5790 5791 5791 5792 5792 5793 5793 5793 5793 5793 5793 5793 5793 5793 5793 5793 5793 5793 5792 5792 5791 5790 5789 5788 5787 5785 5784 5782
5759 5762 5764 5767 5769 5771 5773 5775 5776 5778 5779 5779 5780 5781 5782 5783 5783 5784 5784 5784 5785 5785 5785 5785 5785 5785 5785 5785 5785 5785 5784 5784 5784 5783 5782 5781 5781 5779 5778 5777 5776 5774 5772 5770
5751 5754 5756 5759 5761 5763 5765 5767 5768 5769 5771 5772 5773 5773 5774 5775 5775 5776 5776 5776 5777 5777 5777 5777 5776 5776 5776 5776 5776 5775 5775 5774 5774 5773 5772 5771 5770 5768 5767 5766 5764 5762 5761 5758
5742 5745 5747 5750 5752 5754 5756 5758 5759 5761 5762 5763 5764 5765 5766 5766 5766 5767 5767 5767 5768 5768 5768 5768 5767 5767 5767 5766 5766 5765 5765 5764 5763 5762 5761 5760 5759 5757 5756 5754 5752 5750 5748 5745
5733 5735 5738 5740 5743 5745 5747 5748 5750 5751 5753 5754 5754 5755 5756 5757 5757 5758 5758 5758 5758 5758 5758 5758 5758 5757 5757 5756 5756 5755 5754 5753 5752 5751 5750 5748 5747 5745 5743 5741 5739 5737 5734 5731
5723 5726 5728 5731 5733 5735 5737 5739 5740 5742 5743 5744 5744 5745 5746 5746 5747 5747 5748 5748 5748 5748 5748 5748 5747 5747 5746 5745 5744 5743 5742 5741 5740 5739 5737 5736 5734 5732 5730 5728 5726 5723 5720 5717
5714 5717 5719 5721 5723 5725 5727 5729 5730 5731 5732 5733 5734 5735 5735 5736 5736 5737 5737 5737 5737 5737 5737 5736 5736 5735 5734 5733 5732 5731 5730 5729 5727 5726 5724 5722 5720 5718 5716 5713 5711 5708 5704 5701
5704 5707 5709 5712 5714 5716 5717 5719 5720 5721 5722 5723 5723 5724 5725 5725 5725 5725 5725 5725 5725 5725 5725 5724 5723 5722 5721 5720 5719 5718 5717 5715 5714 5712 5710 5708 5706 5703 5701 5698 5695 5692 5688 5685
5695 5697 5700 5702 5704 5706 5707 5709 5710 5710 5711 5712 5712 5713 5713 5713 5713 5714 5714 5713 5713 5712 5712 5711 5710 5709 5708 5707 5706 5704 5703 5701 5699 5697 5695 5693 5690 5688 5685 5682 5679 5675 5672 5668
5685 5687 5690 5692 5694 5695 5697 5698 5699 5700 5700 5700 5701 5701 5701 5701 5701 5701 5701 5700 5700 5699 5698 5697 5696 5695 5694 5693 5691 5689 5688 5686 5684 5681 5679 5676 5674 5671 5668 5665 5661 5658 5654 5650
5675 5677 5679 5681 5683 5684 5686 5687 5688 5688 5689 5689 5689 5689 5689 5689 5689 5688 5688 5687 5686 5685 5684 5683 5682 5681 5679 5678 5676 5674 5672 5670 5667 5665 5663 5660 5657 5654 5650 5647 5644 5640 5636 5633
5664 5666 5668 5670 5672 5673 5674 5675 5676 5677 5677 5677 5677 5677 5676 5676 5675 5675 5674 5673 5672 5671 5670 5669 5667 5666 5664 5662 5660 5658 5656 5653 5651 5648 5645 5642 5639 5636 5633 5629 5625 5622 5618 5615
5653 5655 5657 5658 5660 5661 5662 5663 5664 5664 5664 5664 5664 5664 5663 5663 5662 5661 5660 5659 5658 5657 5655 5654 5652 5650 5648 5646 5644 5641 5639 5636 5634 5631 5627 5624 5621 5617 5614 5610 5607 5604 5600 5596